QPF
0.05 0.05 0.08 0.10 0.10 0.11 0.12 0.10 0.14 0.13 0.12 0.10 0.05 0.06 0.08 0.12 0.09 0.05 0.06 0.06 0.05 0.06 0.05 0.04 0.04 0.03 0.03 0.02 0.01 0.01 0.01 0.01 0.01 0.01 0.01 0.01 0.01 0.01 0.01 0.02 0.02 0.02 0.02
0.07 0.09 0.08 0.06 0.07 0.08 0.12 0.13 0.14 0.15 0.13 0.10 0.09 0.09 0.10 0.10 0.08 0.06 0.05 0.05 0.05 0.05 0.06 0.05 0.04 0.04 0.03 0.02 0.01 0.01 0.01 0.01 0.01 0.01 0.01 0.01 0.02 0.03 0.03 0.03 0.03 0.02 0.02
0.06 0.10 0.15 0.08 0.09 0.11 0.13 0.14 0.16 0.16 0.16 0.14 0.13 0.10 0.08 0.06 0.06 0.05 0.05 0.04 0.04 0.04 0.06 0.06 0.06 0.06 0.05 0.03 0.02 0.02 0.03 0.02 0.01 0.01 0.02 0.01 0.01 0.03 0.04 0.05 0.03 0.02 0.01
0.08 0.13 0.23 0.14 0.11 0.10 0.12 0.15 0.16 0.16 0.17 0.20 0.16 0.10 0.07 0.05 0.05 0.03 0.03 0.03 0.03 0.03 0.04 0.05 0.07 0.06 0.06 0.05 0.03 0.02 0.03 0.02 0.02 0.02 0.02 0.02 0.02 0.03 0.03 0.04 0.03 0.02 0.01
0.09 0.11 0.14 0.13 0.13 0.13 0.15 0.15 0.15 0.19 0.26 0.27 0.17 0.12 0.10 0.09 0.09 0.06 0.03 0.03 0.02 0.02 0.02 0.03 0.04 0.04 0.04 0.05 0.04 0.03 0.02 0.02 0.02 0.03 0.05 0.05 0.04 0.04 0.03 0.03 0.02 0.02 0.02
0.10 0.10 0.12 0.14 0.13 0.15 0.17 0.17 0.20 0.22 0.18 0.14 0.12 0.11 0.11 0.11 0.09 0.06 0.04 0.03 0.03 0.02 0.02 0.02 0.02 0.02 0.02 0.03 0.06 0.05 0.04 0.04 0.04 0.06 0.06 0.05 0.04 0.03 0.03 0.03 0.02 0.03 0.02
0.11 0.12 0.14 0.15 0.13 0.13 0.20 0.19 0.16 0.16 0.14 0.11 0.11 0.12 0.13 0.10 0.08 0.05 0.04 0.03 0.03 0.02 0.01 0.01 0.02 0.02 0.02 0.02 0.04 0.05 0.04 0.03 0.03 0.03 0.04 0.03 0.03 0.02 0.02 0.02 0.03 0.03 0.03
0.19 0.15 0.13 0.15 0.15 0.13 0.12 0.13 0.15 0.21 0.19 0.12 0.10 0.09 0.12 0.13 0.09 0.06 0.04 0.04 0.03 0.03 0.02 0.02 0.02 0.03 0.02 0.02 0.02 0.03 0.03 0.03 0.02 0.01 0.01 0.02 0.02 0.02 0.02 0.03 0.03 0.03 0.02
0.22 0.20 0.15 0.11 0.12 0.11 0.09 0.10 0.13 0.22 0.23 0.17 0.16 0.11 0.09 0.11 0.11 0.09 0.06 0.05 0.04 0.04 0.04 0.04 0.04 0.05 0.03 0.02 0.01 0.02 0.03 0.03 0.02 0.01 0.01 0.01 0.01 0.01 0.02 0.02 0.04 0.05 0.03
0.13 0.13 0.16 0.13 0.10 0.08 0.07 0.07 0.10 0.11 0.11 0.07 0.10 0.11 0.08 0.07 0.08 0.10 0.10 0.09 0.07 0.06 0.05 0.04 0.05 0.07 0.05 0.03 0.02 0.02 0.02 0.02 0.02 0.01 0.01 0.01 0.01 0.01 0.02 0.03 0.04 0.05 0.04
0.09 0.09 0.12 0.13 0.12 0.08 0.07 0.06 0.05 0.05 0.04 0.04 0.04 0.05 0.04 0.03 0.03 0.04 0.06 0.09 0.10 0.09 0.07 0.04 0.05 0.07 0.07 0.05 0.03 0.03 0.02 0.01 0.02 0.02 0.02 0.02 0.02 0.03 0.02 0.02 0.03 0.03 0.05
0.07 0.07 0.12 0.09 0.08 0.08 0.07 0.06 0.04 0.03 0.03 0.02 0.03 0.04 0.04 0.02 0.03 0.03 0.03 0.06 0.08 0.07 0.07 0.06 0.05 0.07 0.07 0.05 0.04 0.04 0.03 0.02 0.02 0.02 0.03 0.03 0.03 0.02 0.02 0.02 0.02 0.02 0.02
0.09 0.10 0.09 0.07 0.10 0.14 0.13 0.07 0.05 0.03 0.02 0.01 0.02 0.03 0.03 0.02 0.03 0.02 0.03 0.04 0.05 0.05 0.04 0.05 0.05 0.06 0.05 0.05 0.04 0.04 0.04 0.03 0.03 0.03 0.03 0.03 0.03 0.02 0.02 0.02 0.02 0.01 0.01
0.07 0.09 0.09 0.09 0.08 0.09 0.08 0.07 0.06 0.04 0.02 0.01 0.01 0.02 0.02 0.02 0.03 0.03 0.03 0.04 0.04 0.04 0.03 0.03 0.04 0.05 0.05 0.05 0.05 0.06 0.06 0.06 0.06 0.06 0.06 0.05 0.04 0.03 0.03 0.03 0.02 0.02 0.02
0.08 0.08 0.07 0.07 0.08 0.06 0.05 0.06 0.07 0.06 0.02 0.01 0.01 0.01 0.01 0.02 0.02 0.02 0.03 0.03 0.03 0.03 0.03 0.03 0.03 0.03 0.05 0.05 0.07 0.08 0.07 0.07 0.07 0.06 0.05 0.04 0.04 0.03 0.03 0.03 0.02 0.02 0.02
0.05 0.04 0.05 0.05 0.05 0.05 0.05 0.06 0.06 0.05 0.03 0.02 0.01 0.01 0.01 0.01 0.02 0.03 0.04 0.06 0.05 0.04 0.03 0.03 0.03 0.03 0.05 0.06 0.07 0.07 0.07 0.05 0.04 0.03 0.02 0.02 0.02 0.02 0.03 0.02 0.02 0.02 0.02
0.04 0.04 0.04 0.04 0.05 0.05 0.05 0.05 0.05 0.04 0.03 0.02 0.01 0.01 0.01 0.01 0.02 0.02 0.02 0.03 0.05 0.05 0.03 0.04 0.04 0.05 0.06 0.06 0.05 0.04 0.04 0.03 0.02 0.02 0.02 0.01 0.01 0.01 0.01 0.01 0.02 0.02 0.03
0.04 0.04 0.04 0.05 0.06 0.06 0.06 0.07 0.07 0.04 0.02 0.02 0.02 0.01 0.01 0.01 0.02 0.02 0.02 0.02 0.03 0.03 0.03 0.04 0.04 0.04 0.03 0.03 0.03 0.03 0.03 0.02 0.01 0.01 0.01 0.01 0.01 0.01 0.01 0.01 0.02 0.02 0.02
0.05 0.04 0.04 0.05 0.06 0.07 0.07 0.06 0.06 0.05 0.04 0.04 0.03 0.03 0.03 0.02 0.03 0.03 0.02 0.02 0.03 0.03 0.04 0.03 0.04 0.04 0.02 0.02 0.02 0.01 0.01 0.01 0.00 0.00 0.00 0.00 0.01 0.01 0.01 0.02 0.02 0.01 0.02
0.05 0.04 0.03 0.04 0.04 0.05 0.06 0.06 0.05 0.05 0.05 0.05 0.04 0.04 0.04 0.04 0.04 0.04 0.03 0.03 0.04 0.05 0.05 0.03 0.03 0.03 0.02 0.01 0.00 0.00 0.00 0.00 0.00 0.00 0.00 0.00 0.01 0.01 0.01 0.01 0.01 0.01 0.01
0.04 0.04 0.04 0.03 0.04 0.06 0.06 0.06 0.06 0.07 0.05 0.04 0.03 0.04 0.05 0.05 0.05 0.05 0.04 0.03 0.03 0.03 0.03 0.02 0.02 0.02 0.01 0.01 0.00 0.00 0.00 0.00 0.00 0.00 0.00 0.00 0.00 0.00 0.00 0.01 0.01 0.01 0.01
0.05 0.04 0.05 0.07 0.06 0.06 0.06 0.05 0.06 0.07 0.07 0.05 0.03 0.03 0.03 0.03 0.03 0.03 0.02 0.01 0.01 0.01 0.02 0.02 0.01 0.01 0.01 0.00 0.00 0.00 0.00 0.00 0.00 0.00 0.00 0.00 0.00 0.00 0.01 0.01 0.01 0.01 0.01
0.05 0.04 0.03 0.04 0.05 0.05 0.05 0.03 0.05 0.06 0.05 0.03 0.01 0.01 0.01 0.01 0.01 0.01 0.02 0.01 0.01 0.02 0.02 0.02 0.01 0.01 0.00 0.01 0.00 0.00 0.00 0.00 0.00 0.00 0.01 0.01 0.01 0.01 0.01 0.01 0.01 0.01 0.01
0.05 0.04 0.04 0.02 0.02 0.03 0.03 0.03 0.04 0.04 0.04 0.02 0.01 0.01 0.01 0.01 0.01 0.01 0.01 0.01 0.01 0.02 0.02 0.03 0.02 0.01 0.02 0.02 0.01 0.01 0.01 0.01 0.01 0.01 0.01 0.00 0.00 0.00 0.00 0.01 0.01 0.01 0.02
0.04 0.03 0.03 0.02 0.02 0.02 0.03 0.04 0.05 0.06 0.06 0.04 0.02 0.02 0.01 0.01 0.01 0.01 0.00 0.00 0.01 0.01 0.01 0.01 0.01 0.01 0.01 0.02 0.02 0.02 0.02 0.01 0.00 0.00 0.00 0.00 0.00 0.00 0.00 0.00 0.00 0.01 0.01
0.02 0.02 0.02 0.02 0.02 0.02 0.02 0.03 0.03 0.03 0.04 0.05 0.03 0.02 0.02 0.02 0.02 0.01 0.00 0.00 0.00 0.00 0.00 0.00 0.01 0.01 0.02 0.03 0.03 0.03 0.02 0.02 0.01 0.00 0.00 0.01 0.01 0.00 0.00 0.00 0.01 0.01 0.01
MSLP
1003.40 1002.63 1002.10 1001.80 1001.71 1001.78 1002.00 1002.35 1002.79 1003.33 1003.96 1004.64 1005.37 1006.11 1006.81 1007.45 1007.99 1008.42 1008.75 1008.99 1009.17 1009.32 1009.50 1009.70 1009.96 1010.25 1010.58 1010.89 1011.18 1011.41 1011.55 1011.61 1011.57 1011.44 1011.24 1010.97 1010.66 1010.31 1009.94 1009.57 1009.23 1008.91 1008.65
1005.57 1004.70 1004.04 1003.57 1003.29 1003.16 1003.19 1003.35 1003.65 1004.08 1004.63 1005.27 1005.98 1006.71 1007.41 1008.03 1008.54 1008.92 1009.18 1009.34 1009.43 1009.51 1009.60 1009.74 1009.94 1010.18 1010.45 1010.73 1010.97 1011.16 1011.28 1011.32 1011.27 1011.16 1010.98 1010.75 1010.47 1010.15 1009.80 1009.44 1009.07 1008.72 1008.40
1007.98 1007.09 1006.35 1005.77 1005.33 1005.03 1004.86 1004.84 1004.97 1005.26 1005.69 1006.26 1006.90 1007.58 1008.23 1008.81 1009.25 1009.56 1009.74 1009.81 1009.81 1009.80 1009.81 1009.86 1009.98 1010.15 1010.36 1010.56 1010.75 1010.90 1010.98 1011.00 1010.96 1010.86 1010.71 1010.52 1010.29 1010.02 1009.70 1009.35 1008.97 1008.60 1008.24
1010.36 1009.51 1008.77 1008.13 1007.59 1007.15 1006.82 1006.63 1006.59 1006.71 1007.01 1007.45 1007.99 1008.58 1009.15 1009.64 1010.01 1010.24 1010.33 1010.32 1010.24 1010.14 1010.07 1010.05 1010.08 1010.18 1010.30 1010.44 1010.55 1010.64 1010.68 1010.68 1010.63 1010.54 1010.43 1010.28 1010.09 1009.86 1009.58 1009.25 1008.88 1008.49 1008.11
1012.48 1011.72 1011.03 1010.40 1009.81 1009.29 1008.84 1008.50 1008.30 1008.27 1008.40 1008.70 1009.11 1009.58 1010.04 1010.43 1010.72 1010.86 1010.88 1010.80 1010.66 1010.49 1010.35 1010.26 1010.23 1010.25 1010.30 1010.36 1010.40 1010.42 1010.41 1010.37 1010.30 1010.22 1010.11 1009.98 1009.83 1009.63 1009.38 1009.07 1008.72 1008.33 1007.94
1014.17 1013.54 1012.95 1012.37 1011.80 1011.24 1010.72 1010.26 1009.93 1009.74 1009.73 1009.86 1010.13 1010.46 1010.80 1011.10 1011.29 1011.37 1011.33 1011.20 1011.01 1010.81 1010.63 1010.49 1010.40 1010.36 1010.34 1010.33 1010.30 1010.25 1010.18 1010.08 1009.98 1009.87 1009.75 1009.62 1009.47 1009.29 1009.06 1008.77 1008.44 1008.07 1007.69
1015.37 1014.88 1014.42 1013.93 1013.42 1012.86 1012.31 1011.78 1011.34 1011.03 1010.87 1010.86 1010.97 1011.17 1011.40 1011.59 1011.71 1011.73 1011.66 1011.50 1011.30 1011.08 1010.88 1010.71 1010.59 1010.49 1010.41 1010.33 1010.23 1010.11 1009.96 1009.80 1009.64 1009.48 1009.32 1009.17 1009.01 1008.82 1008.60 1008.33 1008.02 1007.68 1007.32
1016.10 1015.76 1015.42 1015.04 1014.60 1014.09 1013.54 1012.98 1012.47 1012.06 1011.78 1011.65 1011.64 1011.72 1011.83 1011.94 1012.00 1011.98 1011.88 1011.71 1011.51 1011.29 1011.09 1010.91 1010.76 1010.62 1010.49 1010.34 1010.17 1009.97 1009.75 1009.51 1009.27 1009.05 1008.83 1008.63 1008.43 1008.23 1008.00 1007.75 1007.47 1007.16 1006.85
1016.46 1016.23 1016.01 1015.75 1015.40 1014.95 1014.42 1013.86 1013.32 1012.85 1012.49 1012.26 1012.15 1012.13 1012.16 1012.20 1012.21 1012.15 1012.04 1011.88 1011.68 1011.47 1011.26 1011.07 1010.89 1010.72 1010.53 1010.33 1010.09 1009.81 1009.51 1009.19 1008.87 1008.57 1008.28 1008.02 1007.78 1007.55 1007.32 1007.08 1006.83 1006.57 1006.32
1016.57 1016.44 1016.32 1016.15 1015.88 1015.50 1015.02 1014.49 1013.95 1013.45 1013.05 1012.77 1012.59 1012.50 1012.46 1012.44 1012.40 1012.33 1012.20 1012.03 1011.83 1011.61 1011.40 1011.19 1010.98 1010.76 1010.53 1010.26 1009.95 1009.61 1009.23 1008.83 1008.44 1008.06 1007.70 1007.38 1007.09 1006.83 1006.59 1006.37 1006.16 1005.96 1005.77
1016.61 1016.53 1016.48 1016.38 1016.18 1015.87 1015.44 1014.95 1014.44 1013.96 1013.55 1013.23 1013.02 1012.88 1012.79 1012.73 1012.65 1012.54 1012.38 1012.19 1011.97 1011.74 1011.49 1011.25 1011.00 1010.74 1010.45 1010.13 1009.76 1009.35 1008.91 1008.45 1007.99 1007.55 1007.13 1006.76 1006.43 1006.15 1005.91 1005.70 1005.53 1005.39 1005.28
1016.69 1016.65 1016.64 1016.58 1016.42 1016.16 1015.80 1015.36 1014.89 1014.44 1014.04 1013.72 1013.49 1013.32 1013.19 1013.08 1012.95 1012.80 1012.60 1012.37 1012.11 1011.84 1011.55 1011.26 1010.96 1010.65 1010.31 1009.94 1009.52 1009.07 1008.58 1008.07 1007.56 1007.07 1006.62 1006.21 1005.85 1005.55 1005.31 1005.13 1004.99 1004.91 1004.86
1016.93 1016.89 1016.88 1016.83 1016.70 1016.47 1016.15 1015.76 1015.34 1014.93 1014.56 1014.25 1014.01 1013.82 1013.65 1013.49 1013.30 1013.09 1012.83 1012.55 1012.23 1011.90 1011.56 1011.22 1010.87 1010.51 1010.13 1009.71 1009.26 1008.78 1008.26 1007.73 1007.20 1006.68 1006.21 1005.78 1005.41 1005.10 1004.86 1004.70 1004.59 1004.55 1004.56
1017.35 1017.29 1017.25 1017.18 1017.05 1016.84 1016.54 1016.19 1015.81 1015.44 1015.10 1014.80 1014.55 1014.33 1014.12 1013.90 1013.65 1013.36 1013.04 1012.69 1012.31 1011.92 1011.52 1011.13 1010.74 1010.34 1009.93 1009.49 1009.02 1008.53 1008.01 1007.47 1006.94 1006.42 1005.94 1005.50 1005.13 1004.82 1004.59 1004.44 1004.35 1004.34 1004.39
1017.93 1017.82 1017.73 1017.62 1017.47 1017.24 1016.96 1016.64 1016.29 1015.95 1015.62 1015.33 1015.06 1014.80 1014.53 1014.25 1013.94 1013.58 1013.19 1012.77 1012.33 1011.89 1011.45 1011.02 1010.60 1010.19 1009.76 1009.32 1008.85 1008.37 1007.86 1007.34 1006.82 1006.32 1005.84 1005.41 1005.04 1004.73 1004.51 1004.36 1004.29 1004.29 1004.37
1018.60 1018.42 1018.27 1018.10 1017.90 1017.66 1017.37 1017.06 1016.72 1016.39 1016.08 1015.77 1015.47 1015.17 1014.86 1014.51 1014.13 1013.71 1013.26 1012.79 1012.31 1011.84 1011.38 1010.94 1010.51 1010.09 1009.67 1009.24 1008.80 1008.33 1007.85 1007.36 1006.86 1006.38 1005.92 1005.51 1005.14 1004.84 1004.62 1004.47 1004.41 1004.41 1004.49
1019.26 1019.01 1018.78 1018.55 1018.30 1018.03 1017.73 1017.41 1017.08 1016.75 1016.42 1016.10 1015.77 1015.43 1015.06 1014.66 1014.22 1013.76 1013.28 1012.78 1012.29 1011.81 1011.35 1010.92 1010.51 1010.10 1009.70 1009.30 1008.88 1008.45 1008.00 1007.54 1007.07 1006.62 1006.18 1005.79 1005.43 1005.14 1004.92 1004.77 1004.70 1004.70 1004.77
1019.80 1019.49 1019.19 1018.91 1018.61 1018.31 1017.99 1017.66 1017.33 1016.99 1016.65 1016.31 1015.95 1015.56 1015.16 1014.72 1014.26 1013.77 1013.28 1012.79 1012.31 1011.86 1011.43 1011.03 1010.64 1010.27 1009.90 1009.52 1009.13 1008.73 1008.30 1007.87 1007.44 1007.01 1006.60 1006.22 1005.89 1005.61 1005.39 1005.24 1005.16 1005.15 1005.20
1020.17 1019.80 1019.46 1019.13 1018.81 1018.48 1018.15 1017.82 1017.48 1017.14 1016.79 1016.42 1016.04 1015.63 1015.21 1014.75 1014.29 1013.82 1013.34 1012.89 1012.45 1012.04 1011.65 1011.29 1010.94 1010.60 1010.25 1009.90 1009.53 1009.14 1008.74 1008.33 1007.92 1007.52 1007.14 1006.78 1006.47 1006.20 1005.99 1005.84 1005.76 1005.73 1005.76
1020.33 1019.94 1019.58 1019.23 1018.90 1018.57 1018.24 1017.91 1017.57 1017.23 1016.87 1016.49 1016.10 1015.69 1015.26 1014.82 1014.38 1013.94 1013.51 1013.11 1012.73 1012.37 1012.03 1011.71 1011.39 1011.08 1010.75 1010.40 1010.04 1009.66 1009.27 1008.87 1008.48 1008.10 1007.74 1007.41 1007.12 1006.87 1006.67 1006.53 1006.43 1006.39 1006.40
1020.30 1019.93 1019.57 1019.24 1018.92 1018.60 1018.29 1017.97 1017.64 1017.30 1016.94 1016.57 1016.18 1015.78 1015.37 1014.96 1014.56 1014.17 1013.80 1013.46 1013.14 1012.83 1012.54 1012.25 1011.96 1011.65 1011.32 1010.97 1010.60 1010.22 1009.82 1009.43 1009.05 1008.69 1008.35 1008.04 1007.78 1007.55 1007.37 1007.23 1007.13 1007.08 1007.07
1020.15 1019.82 1019.50 1019.21 1018.92 1018.63 1018.34 1018.04 1017.72 1017.39 1017.05 1016.68 1016.31 1015.93 1015.55 1015.18 1014.83 1014.50 1014.19 1013.90 1013.63 1013.37 1013.11 1012.84 1012.55 1012.23 1011.89 1011.52 1011.14 1010.74 1010.34 1009.95 1009.58 1009.23 1008.91 1008.63 1008.39 1008.18 1008.01 1007.87 1007.77 1007.71 1007.67
1019.95 1019.68 1019.42 1019.17 1018.93 1018.67 1018.41 1018.13 1017.83 1017.51 1017.17 1016.82 1016.47 1016.11 1015.76 1015.44 1015.13 1014.85 1014.59 1014.35 1014.12 1013.89 1013.64 1013.37 1013.08 1012.74 1012.38 1011.99 1011.58 1011.17 1010.76 1010.37 1010.01 1009.68 1009.38 1009.13 1008.90 1008.71 1008.55 1008.41 1008.30 1008.22 1008.15
1019.75 1019.55 1019.36 1019.17 1018.96 1018.75 1018.50 1018.24 1017.95 1017.64 1017.30 1016.96 1016.62 1016.28 1015.96 1015.66 1015.39 1015.14 1014.92 1014.71 1014.50 1014.28 1014.04 1013.76 1013.45 1013.09 1012.71 1012.30 1011.88 1011.46 1011.05 1010.67 1010.32 1010.01 1009.74 1009.49 1009.28 1009.10 1008.94 1008.80 1008.67 1008.57 1008.47
1019.60 1019.47 1019.33 1019.19 1019.02 1018.82 1018.60 1018.34 1018.05 1017.73 1017.39 1017.05 1016.71 1016.37 1016.07 1015.78 1015.53 1015.30 1015.09 1014.89 1014.69 1014.47 1014.22 1013.93 1013.60 1013.24 1012.84 1012.43 1012.01 1011.59 1011.20 1010.83 1010.51 1010.22 1009.96 1009.73 1009.53 1009.35 1009.18 1009.02 1008.88 1008.74 1008.61
1019.49 1019.41 1019.32 1019.20 1019.06 1018.87 1018.65 1018.38 1018.08 1017.75 1017.40 1017.04 1016.69 1016.35 1016.04 1015.75 1015.50 1015.27 1015.06 1014.85 1014.64 1014.41 1014.15 1013.86 1013.52 1013.16 1012.77 1012.37 1011.97 1011.58 1011.21 1010.88 1010.58 1010.31 1010.07 1009.85 1009.65 1009.46 1009.27 1009.10 1008.92 1008.76 1008.60
Thickness
5745 5745 5744 5743 5742 5739 5737 5734 5731 5728 5725 5722 5721 5719 5717 5715 5714 5713 5713 5711 5710 5708 5705 5702 5700 5697 5695 5693 5691 5688 5686 5683 5682 5679 5677 5678 5679 5679 5679 5678 5677 5677 5676
5736 5736 5734 5734 5733 5731 5729 5727 5725 5722 5719 5718 5716 5715 5714 5711 5710 5709 5708 5707 5705 5703 5702 5698 5696 5693 5691 5688 5686 5684 5680 5678 5678 5673 5668 5665 5668 5671 5675 5673 5672 5672 5672
5729 5727 5725 5725 5725 5723 5721 5720 5717 5716 5714 5713 5711 5709 5707 5705 5704 5703 5702 5702 5701 5699 5697 5695 5692 5690 5687 5683 5681 5679 5676 5672 5671 5670 5665 5659 5656 5659 5665 5666 5667 5666 5665
5721 5719 5716 5716 5716 5715 5715 5713 5710 5709 5707 5706 5704 5703 5701 5698 5698 5698 5697 5696 5696 5695 5693 5690 5688 5685 5683 5680 5677 5675 5672 5669 5665 5664 5663 5661 5658 5653 5653 5657 5659 5660 5659
5713 5710 5709 5708 5709 5709 5707 5705 5704 5702 5700 5700 5699 5697 5696 5695 5694 5693 5691 5690 5690 5689 5688 5686 5683 5681 5678 5676 5673 5670 5668 5665 5662 5659 5657 5656 5653 5650 5646 5645 5648 5651 5653
5705 5703 5703 5702 5701 5701 5700 5700 5698 5695 5694 5694 5694 5692 5691 5690 5688 5686 5685 5684 5683 5683 5683 5681 5679 5676 5674 5672 5669 5666 5663 5661 5658 5656 5654 5651 5647 5644 5641 5639 5639 5640 5644
5697 5696 5695 5694 5694 5695 5695 5695 5692 5689 5689 5689 5689 5687 5686 5685 5683 5682 5680 5678 5677 5677 5677 5676 5674 5671 5670 5668 5665 5662 5659 5657 5654 5652 5650 5648 5645 5642 5639 5635 5634 5633 5636
5691 5690 5689 5689 5689 5689 5689 5687 5686 5684 5683 5682 5682 5682 5682 5681 5679 5678 5677 5675 5674 5674 5673 5671 5669 5667 5665 5663 5660 5658 5656 5653 5651 5649 5646 5644 5642 5640 5636 5632 5629 5626 5626
5687 5685 5685 5684 5684 5683 5682 5681 5679 5678 5678 5677 5677 5677 5678 5676 5675 5674 5674 5672 5671 5670 5669 5667 5664 5662 5661 5659 5656 5654 5652 5649 5647 5645 5642 5640 5638 5636 5633 5630 5626 5621 5618
5680 5679 5679 5679 5680 5679 5676 5675 5674 5673 5672 5672 5671 5672 5672 5671 5670 5670 5669 5668 5667 5666 5663 5662 5659 5658 5656 5655 5652 5650 5648 5645 5643 5641 5638 5636 5634 5631 5629 5625 5622 5618 5614
5675 5675 5674 5675 5675 5675 5673 5670 5669 5668 5668 5667 5668 5667 5667 5666 5666 5665 5665 5664 5662 5660 5658 5657 5655 5653 5652 5650 5648 5646 5643 5641 5638 5636 5634 5632 5629 5626 5623 5621 5617 5614 5610
5672 5670 5670 5671 5671 5670 5669 5667 5665 5665 5665 5664 5664 5664 5663 5661 5660 5659 5659 5659 5657 5656 5655 5653 5651 5650 5648 5646 5644 5641 5639 5636 5634 5632 5630 5627 5625 5622 5619 5616 5612 5610 5607
5667 5666 5666 5667 5667 5667 5665 5664 5664 5663 5663 5662 5661 5660 5658 5657 5656 5655 5655 5655 5654 5652 5651 5649 5648 5646 5645 5642 5640 5638 5635 5633 5630 5628 5625 5623 5620 5617 5614 5611 5608 5606 5604
5663 5662 5661 5662 5663 5664 5663 5662 5662 5661 5661 5660 5658 5656 5655 5655 5654 5652 5652 5651 5650 5648 5646 5645 5644 5643 5641 5639 5636 5634 5631 5629 5627 5625 5622 5620 5617 5613 5610 5607 5604 5601 5598
5660 5659 5658 5658 5659 5660 5660 5660 5659 5659 5659 5658 5656 5654 5654 5653 5651 5650 5649 5648 5646 5645 5644 5642 5641 5639 5637 5635 5632 5629 5627 5624 5622 5621 5619 5616 5614 5611 5607 5604 5601 5598 5594
5658 5658 5658 5657 5657 5658 5658 5657 5657 5657 5657 5655 5653 5653 5652 5650 5649 5647 5646 5644 5643 5642 5640 5638 5636 5634 5633 5631 5628 5626 5623 5621 5618 5616 5614 5612 5610 5607 5604 5602 5599 5595 5591
5657 5657 5657 5656 5656 5656 5656 5655 5656 5656 5654 5652 5652 5651 5649 5648 5646 5646 5643 5641 5639 5638 5636 5634 5632 5629 5628 5627 5625 5623 5619 5617 5614 5612 5609 5608 5607 5603 5600 5597 5595 5592 5590
5656 5656 5655 5655 5655 5655 5655 5655 5655 5653 5652 5650 5650 5649 5647 5646 5644 5642 5640 5638 5637 5635 5633 5631 5629 5626 5625 5624 5622 5620 5616 5614 5611 5609 5607 5603 5601 5599 5595 5592 5589 5587 5586
5655 5655 5655 5655 5654 5654 5654 5653 5652 5651 5650 5649 5648 5647 5646 5643 5641 5640 5638 5636 5634 5632 5630 5628 5626 5624 5622 5622 5620 5617 5614 5611 5608 5607 5604 5600 5597 5595 5592 5587 5584 5582 5581
5656 5656 5656 5655 5653 5653 5653 5651 5649 5648 5647 5648 5647 5647 5645 5643 5640 5638 5636 5635 5633 5630 5628 5627 5624 5622 5620 5619 5617 5614 5610 5607 5605 5603 5600 5598 5594 5590 5587 5582 5578 5575 5574
5657 5657 5656 5654 5652 5652 5651 5649 5647 5647 5648 5648 5648 5646 5644 5643 5641 5638 5636 5634 5631 5628 5626 5624 5622 5620 5618 5616 5614 5611 5606 5603 5600 5598 5595 5593 5590 5586 5582 5578 5574 5571 5568
5656 5656 5654 5652 5652 5651 5649 5647 5646 5648 5648 5648 5646 5645 5644 5643 5641 5638 5635 5633 5630 5627 5624 5621 5620 5619 5617 5614 5611 5608 5604 5601 5596 5593 5591 5588 5585 5582 5578 5575 5571 5568 5563
5654 5654 5652 5650 5650 5650 5649 5647 5647 5649 5648 5647 5645 5644 5643 5641 5639 5637 5634 5631 5629 5626 5623 5620 5617 5615 5613 5611 5608 5605 5602 5599 5594 5590 5587 5584 5581 5578 5574 5570 5566 5562 5556
5652 5651 5651 5649 5649 5650 5650 5649 5649 5649 5648 5645 5644 5643 5641 5639 5638 5636 5633 5630 5627 5625 5623 5620 5616 5613 5610 5608 5605 5602 5598 5595 5591 5587 5584 5581 5578 5574 5569 5564 5559 5554 5549
5651 5651 5650 5648 5649 5649 5649 5650 5649 5648 5646 5644 5643 5642 5640 5638 5636 5634 5632 5630 5629 5627 5624 5621 5617 5612 5609 5608 5604 5598 5594 5590 5586 5582 5579 5575 5571 5566 5562 5557 5552 5547 5542
5651 5650 5650 5649 5649 5649 5648 5649 5649 5648 5645 5643 5642 5641 5639 5637 5635 5633 5631 5631 5630 5629 5627 5623 5618 5614 5610 5606 5601 5597 5592 5588 5584 5579 5573 5568 5564 5559 5554 5550 5545 5541 5536